星链-30553 (STARLINK-30553 )

导读 | 星芒AI

STARLINK-30553 是 SpaceX Starlink 卫星互联网项目中的一颗低轨卫星,属于第三代 Starlink(v1.5 或 v2)系列。该卫星由 SpaceX 制造并发射,旨在为全球用户提供高速、低延迟的宽带互联网服务。它运行在约 550 公里的轨道高度,采用先进的推进系统和激光通信技术,以提升网络效率和稳定性。STARLINK-30553 是 Starlink 网络扩展计划的一部分,有助于改善偏远地区的网络接入能力。

基本信息
目录编号:
58056
目录名称:
STARLINK-30553
国际标识:
2023-158F
轨道中心:
EARTH
卫星名称:
星链-30553
卫星全名:
星链-30553 (STARLINK-30553 )
卫星状态:
在轨 (已飞行798 天)
发射日期:
2023-10-13 UTC
国别 :
美国 (US)
星等 :
--
轨道信息
数据来源 国际轨道数据 AOE轨道数据
星历时间 2025-12-19T00:10:47+0800
1天前
查看轨道信息
2025-12-14T03:00:00+0800
5天前
查看轨道信息
半长轴 6937.192km 6937.113km
偏心率 0.0001503 0.0000501
轨道倾角 43.003° 43.006°
近地点辐角 263.735° 271.734°
升交点赤经 110.620° 137.153°
平近点角 96.333° 288.091°
近地点 558.014km 558.63km
远地点 560.1km 559.326km
周期 95.837分钟 95.836分钟
每日圈数 15.025441 15.025699
详细信息
固有亮度:
5
最大亮度:
0.3
卫星平台:
Starlink v2.0 mini
覆盖范围:
全球
运营商:
太空探索技术公司
运营商所在国:
美国
制造商(研发单位):
太空探索技术公司
制造商所在国:
美国
使用方式:
暂无
卫星简介
星链(Starlink)计划是由太空探索技术公司(SpaceX)提出的一个巨型低轨卫星互联网星座项目,计划在2019年至2024年间在太空搭建由约1.2万颗卫星组成的“星链”网络,其中1584颗将部署在地球上空550千米处的近地轨道,并从2020年开始工作。该卫星仍在工作。
2D轨道图
3D轨道图
轨道高度分析图
轨道倾角分析图
轨道综合分析图
查看轨道综合分析图